Regional Weather Roundup
Issued by NWS

Home | Current Version | Previous Version | Graphics & Text | Print | Product List | Glossary On
Versions: 1 2 3 4 5 6 7 8 9 10 11 12 13 14 15 16 17 18 19 20 21 22 23 24 25 26 27 28 29 30 31 32 33 34 35 36 37 38 39 40 41 42 43 44 45 46 47 48 49 50
000
ASUS43 KDTX 141101
RWRMI
MICHIGAN HOURLY REGIONAL WEATHER ROUNDUP
NATIONAL WEATHER SERVICE DETROIT/PONTIAC MI
600 AM EST SUN FEB 14 2016

NOTE: "FAIR" INDICATES FEW OR NO CLOUDS BELOW 12,000 FEET WITH NO
SIGNIFICANT WEATHER AND/OR OBSTRUCTION TO VISIBILITY.

MIZ047>049-052>055-059>063-066>070-074>076-081>083-141200-
SOUTHEAST LOWER MICHIGAN

CITY           SKY/WX    TMP DP  RH WIND       PRES   REMARKS
ADRIAN         CLOUDY     0  -4  83 CALM      30.46F
ALMA           CLEAR      5   2  88 CALM      30.44S
ANN ARBOR      PTCLDY    -7 -11  83 W3        30.45S
BAD AXE        CLOUDY    -5  -9  84 CALM      30.44F
DETROIT CITY   CLEAR      4  -2  76 CALM      30.47F
DETROIT        CLOUDY     0  -4  83 CALM      30.48F
FLINT          CLOUDY    -1  -7  75 CALM      30.45S
GROSSE ILE     CLEAR      5   1  85 CALM      30.46F
HILLSDALE      PTCLDY     0  -4  83 CALM      30.40S
HOWELL         PTCLDY    -6 -10  83 CALM      30.43S

CITY           SKY/WX    TMP DP  RH WIND       PRES   REMARKS
JACKSON        PTCLDY    -2  -8  76 CALM      30.42F
LAMBERTVILLE   CLOUDY     1  -2  88 CALM      30.48S
LANSING        CLOUDY     1  -4  79 CALM      30.44F
LAPEER         FAIR      -9 -13  84 CALM      30.44F
MASON          CLOUDY    -6 -10  81 S3        30.43S
MONROE         CLOUDY     2  -2  83 CALM      30.47S
MT. CLEMENS    CLOUDY     1  -3  85 W1        30.45F
PONTIAC        PTCLDY    -3  -9  75 CALM      30.42F
PORT HOPE        N/A     10   0  63 W7        30.42S WCI  -1
PORT HURON     CLOUDY    -6  -9  84 CALM      30.47S
TRI CITIES     CLOUDY    10   3  73 CALM      30.45F
MIDLAND        CLOUDY     9   3  76 CALM      30.45S
TROY           CLOUDY     6   1  81 CALM      30.47S
SAGINAW HB     CLOUDY     7   3  85 CALM      30.46R
$$
MIZ043>046-050>051-056>058-064>065-071>073-077>080-141200-
SOUTHWEST LOWER MICHIGAN

CITY           SKY/WX    TMP DP  RH WIND       PRES   REMARKS
BATTLE CREEK   CLOUDY     0  -5  79 CALM      30.41F
BENTON HARBOR  CLOUDY     9   2  73 E6        30.43S WCI  -1
BIG RAPIDS     CLOUDY     1  -1  88 CALM      30.39S
COLDWATER      CLOUDY    -2  -5  85 SE3       30.42S
FREMONT        CLOUDY    10  -1  59 E5        30.40F WCI   2
HOLLAND        CLOUDY    10   0  63 SE6       30.42F WCI   0
GRAND RAPIDS   PTCLDY     2  -3  80 S5        30.42F WCI  -8
IONIA          FAIR       2  -3  80 S3        30.41F
KALAMAZOO      CLOUDY     2  -4  76 E3        30.42F
LUDINGTON      CLOUDY    12   4  70 SE7       30.40S WCI   2
MARSHALL       PTCLDY    -2  -6  83 CALM      30.42F
MOUNT PLEASANT CLOUDY     9   3  75 CALM      30.43S
MUSKEGON       CLOUDY    12   1  61 SE10      30.42F WCI  -1
SOUTH HAVEN    CLOUDY    10   4  76 SE7       30.42F WCI  -1
$$
MIZ016>042-141200-
NORTHERN LOWER MICHIGAN

CITY           SKY/WX    TMP DP  RH WIND       PRES   REMARKS
ALPENA         CLEAR     -7 -11  83 SW3       30.44S
BEAVER ISLAND  LGT SNOW  11   8  87 E6        30.40S WCI   1
BELLAIRE       CLOUDY    11   6  81 S5        30.42R WCI   3
CADILLAC       CLOUDY     3  -2  80 CALM      30.35S
CHARLEVOIX     LGT SNOW  10   6  87 SE6       30.42S WCI   0
FRANKFORT      FLURRIES  13   5  70 SE3       30.39S
GAYLORD        CLOUDY     5   0  79 CALM      30.35R
GRAYLING       CLOUDY     4  -1  83 CALM      30.38S
HARBOR SPRINGS LGT SNOW   0  -4  83 E3        30.41R
HOUGHTON LAKE  CLOUDY     7   2  80 S5        30.38S WCI  -2
MANISTEE       CLOUDY    12   1  62 SE6       30.39F WCI   3
OSCODA         CLOUDY    -8 -14  76 W3        30.45S
PELLSTON       CLOUDY    -7 -12  79 CALM      30.42R
ROGERS CITY    CLOUDY     1  -3  82 S5        30.44S WCI  -8
TRAVERSE CITY  CLOUDY    12   3  67 S3        30.40S
$$
MIZ007>008-015-141200-
EASTERN UPPER MICHIGAN

CITY           SKY/WX    TMP DP  RH WIND       PRES   REMARKS
KINROSS        CLOUDY    -4  -9  77 E7        30.40F WCI -18
MACKINAC ISLAN LGT SNOW   8   5  87 E3        30.40S
NEWBERRY       CLOUDY    -8 -10  92 CALM      30.37S
S. S. MARIE    CLOUDY    -8 -14  74 E7        30.42S WCI -23
$$
MIZ004>006-011>014-085-141200-
CENTRAL UPPER MICHIGAN

CITY           SKY/WX    TMP DP  RH WIND       PRES   REMARKS
MANISTIQUE     CLOUDY   -15 -20  80 CALM      30.38F
ESCANABA       CLOUDY   -15 N/A N/A CALM      30.38S
MENOMINEE      CLOUDY    -9 -15  77 CALM      30.37S
SAWYER-GWINN   CLOUDY   -24 -29  74 CALM      30.30F
$$
MIZ001>003-009>011-084-141200-
WESTERN UPPER MICHIGAN

CITY           SKY/WX    TMP DP  RH WIND       PRES   REMARKS
IRON MOUNTAIN  CLOUDY   -19 -25  73 CALM      30.30F
HOUGHTON       CLOUDY    -1  -7  75 SW5       30.28F WCI -11
COPPER HARBOR    N/A      3  -3  76 SW7       30.32F WCI  -9
IRONWOOD       CLOUDY    -2 -20  42 CALM      30.20F
$$

ABBREVIATIONS USED IN REMARKS
   TC - TEMPERATURE IN CELSIUS
  WCI - WIND CHILL INDEX
   HX - HEAT INDEX
  VSB - VISIBILITY




USA.gov is the U.S. government's official web portal to all federal, state and local government web resources and services.